TimeEST,TemperatureF,Dew PointF,Humidity,Sea Level PressureIn,VisibilityMPH,Wind Direction,Wind SpeedMPH,Gust SpeedMPH,PrecipitationIn,Events,Conditions,WindDirDegrees,DateUTC
12:15 AM,37.4,30.2,75,30.35,10.0,East,8.1,-,N/A,,Clear,80,2012-11-15 05:15:00
12:35 AM,37.4,30.2,75,30.34,10.0,ENE,9.2,18.4,N/A,,Clear,60,2012-11-15 05:35:00
12:55 AM,37.4,28.4,70,30.34,10.0,East,5.8,-,N/A,,Clear,80,2012-11-15 05:55:00
1:15 AM,37.4,30.2,75,30.33,10.0,ENE,6.9,-,N/A,,Clear,70,2012-11-15 06:15:00
1:35 AM,37.4,28.4,70,30.33,10.0,NE,6.9,-,N/A,,Clear,40,2012-11-15 06:35:00
1:55 AM,37.4,28.4,70,30.33,10.0,ENE,4.6,-,N/A,,Clear,60,2012-11-15 06:55:00
2:15 AM,35.6,28.4,75,30.33,10.0,NE,3.5,-,N/A,,Clear,50,2012-11-15 07:15:00
2:35 AM,35.6,28.4,75,30.33,10.0,NE,3.5,-,N/A,,Clear,40,2012-11-15 07:35:00
2:55 AM,35.6,28.4,75,30.33,10.0,Calm,Calm,-,N/A,,Clear,0,2012-11-15 07:55:00
3:15 AM,33.8,28.4,81,30.33,10.0,NNW,3.5,-,N/A,,Clear,340,2012-11-15 08:15:00
3:35 AM,33.8,28.4,81,30.33,10.0,North,5.8,-,N/A,,Clear,350,2012-11-15 08:35:00
3:55 AM,33.8,28.4,81,30.32,10.0,NNE,3.5,-,N/A,,Clear,20,2012-11-15 08:55:00
4:15 AM,33.8,28.4,81,30.31,10.0,North,3.5,-,N/A,,Clear,360,2012-11-15 09:15:00
4:35 AM,33.8,28.4,81,30.32,10.0,Calm,Calm,-,N/A,,Clear,0,2012-11-15 09:35:00
4:55 AM,33.8,28.4,81,30.33,10.0,Calm,Calm,-,N/A,,Clear,0,2012-11-15 09:55:00
5:15 AM,33.8,28.4,81,30.32,10.0,Calm,Calm,-,N/A,,Clear,0,2012-11-15 10:15:00
5:35 AM,32.0,28.4,87,30.33,10.0,Calm,Calm,-,N/A,,Clear,0,2012-11-15 10:35:00
5:55 AM,32.0,28.4,87,30.33,10.0,Calm,Calm,-,N/A,,Clear,0,2012-11-15 10:55:00
6:15 AM,33.8,28.4,81,30.32,10.0,Calm,Calm,-,N/A,,Clear,0,2012-11-15 11:15:00
6:35 AM,33.8,30.2,87,30.32,10.0,Calm,Calm,-,N/A,,Clear,0,2012-11-15 11:35:00
6:55 AM,33.8,30.2,87,30.32,10.0,Calm,Calm,-,N/A,,Clear,0,2012-11-15 11:55:00
7:15 AM,33.8,28.4,81,30.33,10.0,Calm,Calm,-,N/A,,Clear,0,2012-11-15 12:15:00
7:35 AM,33.8,30.2,87,30.33,10.0,Calm,Calm,-,N/A,,Clear,0,2012-11-15 12:35:00
7:55 AM,33.8,30.2,87,30.32,10.0,North,3.5,-,N/A,,Clear,360,2012-11-15 12:55:00
8:15 AM,35.6,30.2,81,30.33,10.0,North,3.5,-,N/A,,Clear,10,2012-11-15 13:15:00
8:35 AM,37.4,30.2,75,30.33,10.0,NNE,4.6,-,N/A,,Clear,20,2012-11-15 13:35:00
8:55 AM,37.4,30.2,75,30.33,10.0,NE,6.9,-,N/A,,Clear,40,2012-11-15 13:55:00
9:15 AM,39.2,30.2,70,30.32,10.0,North,5.8,-,N/A,,Clear,360,2012-11-15 14:15:00
9:35 AM,41.0,30.2,65,30.33,10.0,NE,3.5,-,N/A,,Clear,40,2012-11-15 14:35:00
9:55 AM,41.0,28.4,61,30.33,10.0,North,4.6,-,N/A,,Clear,360,2012-11-15 14:55:00
10:15 AM,41.0,32.0,70,30.33,10.0,Calm,Calm,-,N/A,,Clear,0,2012-11-15 15:15:00
10:35 AM,42.8,28.4,57,30.33,10.0,ENE,3.5,-,N/A,,Clear,70,2012-11-15 15:35:00
10:55 AM,42.8,28.4,57,30.33,10.0,ESE,3.5,-,N/A,,Clear,120,2012-11-15 15:55:00
11:15 AM,42.8,28.4,57,30.32,10.0,ENE,5.8,-,N/A,,Clear,70,2012-11-15 16:15:00
11:35 AM,44.6,28.4,53,30.32,10.0,ENE,4.6,-,N/A,,Clear,70,2012-11-15 16:35:00
11:55 AM,44.6,30.2,57,30.30,10.0,East,3.5,-,N/A,,Scattered Clouds,90,2012-11-15 16:55:00
12:15 PM,44.6,28.4,53,30.29,10.0,ENE,3.5,-,N/A,,Scattered Clouds,60,2012-11-15 17:15:00
12:35 PM,44.6,28.4,53,30.28,10.0,East,4.6,-,N/A,,Mostly Cloudy,90,2012-11-15 17:35:00
12:55 PM,44.6,28.4,53,30.27,10.0,Calm,Calm,-,N/A,,Overcast,0,2012-11-15 17:55:00
1:15 PM,46.4,28.4,50,30.27,10.0,Calm,Calm,-,N/A,,Overcast,0,2012-11-15 18:15:00
1:35 PM,46.4,28.4,50,30.25,10.0,Calm,Calm,-,N/A,,Scattered Clouds,0,2012-11-15 18:35:00
1:55 PM,46.4,30.2,53,30.24,10.0,East,3.5,-,N/A,,Scattered Clouds,80,2012-11-15 18:55:00
2:15 PM,46.4,30.2,53,30.24,10.0,East,4.6,-,N/A,,Scattered Clouds,100,2012-11-15 19:15:00
2:35 PM,46.4,30.2,53,30.24,10.0,East,5.8,-,N/A,,Clear,100,2012-11-15 19:35:00
2:55 PM,46.4,30.2,53,30.24,10.0,East,6.9,-,N/A,,Mostly Cloudy,100,2012-11-15 19:55:00
3:15 PM,46.4,30.2,53,30.25,10.0,East,6.9,-,N/A,,Overcast,90,2012-11-15 20:15:00
3:35 PM,46.4,30.2,53,30.25,10.0,East,6.9,-,N/A,,Mostly Cloudy,100,2012-11-15 20:35:00
3:55 PM,44.6,30.2,57,30.25,10.0,ESE,5.8,-,N/A,,Scattered Clouds,110,2012-11-15 20:55:00
4:15 PM,44.6,30.2,57,30.24,10.0,ENE,5.8,-,N/A,,Mostly Cloudy,70,2012-11-15 21:15:00
4:35 PM,44.6,30.2,57,30.24,10.0,ENE,3.5,-,N/A,,Scattered Clouds,60,2012-11-15 21:35:00
4:55 PM,44.6,30.2,57,30.25,10.0,Calm,Calm,-,N/A,,Clear,0,2012-11-15 21:55:00
5:15 PM,44.6,30.2,57,30.24,10.0,ENE,3.5,-,N/A,,Clear,60,2012-11-15 22:15:00
5:55 PM,42.8,30.2,61,30.25,10.0,Calm,Calm,-,N/A,,Clear,0,2012-11-15 22:55:00
6:15 PM,42.8,30.2,61,30.26,10.0,Calm,Calm,-,N/A,,Clear,0,2012-11-15 23:15:00
6:55 PM,41.0,30.2,65,30.27,10.0,Calm,Calm,-,N/A,,Clear,0,2012-11-15 23:55:00
7:15 PM,39.2,30.2,70,30.27,10.0,Calm,Calm,-,N/A,,Clear,0,2012-11-16 00:15:00
7:35 PM,37.4,30.2,75,30.28,10.0,Calm,Calm,-,N/A,,Clear,0,2012-11-16 00:35:00
7:55 PM,35.6,30.2,81,30.28,10.0,Calm,Calm,-,N/A,,Clear,0,2012-11-16 00:55:00
8:55 PM,35.6,30.2,81,30.28,10.0,Calm,Calm,-,N/A,,Clear,0,2012-11-16 01:55:00
9:15 PM,33.8,30.2,87,30.28,10.0,Calm,Calm,-,N/A,,Clear,0,2012-11-16 02:15:00
9:35 PM,32.0,30.2,93,30.28,10.0,Calm,Calm,-,N/A,,Clear,0,2012-11-16 02:35:00
9:55 PM,33.8,30.2,87,30.28,10.0,Calm,Calm,-,N/A,,Clear,0,2012-11-16 02:55:00
10:15 PM,32.0,28.4,87,30.27,10.0,Calm,Calm,-,N/A,,Clear,0,2012-11-16 03:15:00
10:55 PM,32.0,28.4,87,30.28,10.0,Calm,Calm,-,N/A,,Clear,0,2012-11-16 03:55:00
11:15 PM,32.0,28.4,87,30.27,10.0,Calm,Calm,-,N/A,,Unknown,0,2012-11-16 04:15:00
11:35 PM,32.0,28.4,87,30.27,10.0,Calm,Calm,-,N/A,,Clear,0,2012-11-16 04:35:00
11:55 PM,32.0,28.4,87,30.27,10.0,Calm,Calm,-,N/A,,Clear,0,2012-11-16 04:55:00